Location: Tamazert
(32.6352°N, 5.2072°W)
Time: 20:27:28
(UTC+00:00)

Vanguard 3 - Pass Details

Date: 12 October 2022
Orbit: 509 x 3255 km, 33.3° (Epoch: 02 December)

Event Time Altitude Azimuth Distance (km) Brightness Sun altitude
Rises 09:11:11 0° 279° (W) 2,605 9.3 32.0°
Reaches altitude 10° 09:13:09 10° 278° (W) 1,763 8.5 32.4°
Maximum altitude 09:16:57 79° 191° (S) 626 7.3 33.0°
Drops below altitude 10° 09:22:16 10° 106° (ESE) 2,444 10.8 33.9°
Sets 09:25:26 0° 105° (ESE) 3,744 11.4 34.4°
